Tracking 28790 objects as of 19-Apr-2024
HD Live streaming from Space Station
objects crossing your sky now

DELTA 1 DEB

Track DELTA 1 DEB now!
10-day predictions


NORAD ID: 14497
Int'l Code: 1977-065FN
Perigee: 956.1 km
Apogee: 2,362.4 km
Inclination: 29.3 °
Period: 119.4 minutes
Semi major axis: 8030 km
RCS: 0.1116 m2 (medium)
Launch date: July 14, 1977
Source: United States (US)
Launch site: AIR FORCE EASTERN TEST RANGE (AFETR)

Note: This is SATELLITE DEBRIS
Your satellite tracking list
Your tracking list is empty




NASA's NSSDC Master Catalog

Two Line Element Set (TLE):
1 14497U 77065FN  24106.66673578  .00002435  00000-0  85545-2 0  9994
2 14497  29.2903 303.4883 0875585 104.8450 322.1963 12.06449910885206
Source of the keplerian elements: AFSPC